This is the latest recevied weather packets stored in our database for station/object AC5CM. If no packets are shown the sender has not sent any weather packets the latest 1 day(s).
| Time | Temp. | Humidity | Pressure | Rain* | Wind** | Luminosity | Snow |
|---|---|---|---|---|---|---|---|
| 1777988454 | 24.44° C | 89% | 1010.6 hPa | 0 mm | 0.89 m/s, 213° | - | - |
| 1777988150 | 24.44° C | 89% | 1010.3 hPa | 0 mm | 0.89 m/s, 119° | - | - |
| 1777987846 | 23.89° C | 89% | 1010.4 hPa | 0 mm | 0.89 m/s, 155° | - | - |
| 1777987543 | 23.89° C | 89% | 1010.3 hPa | 0 mm | 1.34 m/s, 91° | - | - |
| 1777987241 | 23.89° C | 90% | 1010.1 hPa | 0 mm | 0.45 m/s, 106° | - | - |
| 1777986937 | 23.33° C | 90% | 1010.3 hPa | 0 mm | 1.79 m/s, 135° | - | - |
| 1777986635 | 23.33° C | 90% | 1010.1 hPa | 0 mm | 1.34 m/s, 253° | - | - |
| 1777986333 | 23.33° C | 90% | 1010.4 hPa | 0 mm | 0.45 m/s, 137° | - | - |
| 1777986031 | 23.33° C | 91% | 1010.4 hPa | 0 mm | 0 m/s | - | - |
| 1777985727 | 23.33° C | 91% | 1010.2 hPa | 0 mm | 0.89 m/s, 136° | - | - |
| 1777985424 | 23.33° C | 92% | 1010.1 hPa | 0 mm | 0 m/s | - | - |
| 1777985121 | 22.78° C | 92% | 1009.9 hPa | 0 mm | 0.89 m/s, 137° | - | - |
| 1777984817 | 22.78° C | 93% | 1010 hPa | 0 mm | 0 m/s | - | - |
| 1777984514 | 22.78° C | 93% | 1010.1 hPa | 0 mm | 0 m/s | - | - |
| 1777984210 | 22.22° C | 93% | 1009.8 hPa | 0 mm | 0 m/s | - | - |
| 1777983907 | 22.22° C | 93% | 1009.9 hPa | 0 mm | 1.79 m/s, 147° | - | - |
| 1777983604 | 22.22° C | 93% | 1009.7 hPa | 0 mm | 0.89 m/s, 81° | - | - |
| 1777983300 | 22.22° C | 93% | 1009.6 hPa | 0 mm | 0.45 m/s, 123° | - | - |
| 1777982997 | 22.22° C | 93% | 1009.3 hPa | 0 mm | 0.89 m/s, 143° | - | - |
| 1777982693 | 22.22° C | 92% | 1009.5 hPa | 0 mm | 0.89 m/s, 146° | - | - |
| 1777982392 | 22.22° C | 92% | 1009.4 hPa | 0 mm | 0.89 m/s, 144° | - | - |
| 1777982089 | 22.22° C | 92% | 1009.7 hPa | 0 mm | 0 m/s | - | - |
| 1777981787 | 22.22° C | 92% | 1009.8 hPa | 0 mm | 0.45 m/s, 124° | - | - |
| 1777981483 | 22.22° C | 93% | 1010 hPa | 0 mm | 0.89 m/s, 135° | - | - |
| 1777981180 | 22.22° C | 92% | 1009.7 hPa | 0 mm | 0.89 m/s, 131° | - | - |
* Rain latest hour (hover to see other rain measurements)
** Current wind speed in m/s (hover to see current wind gust speed)